Regional Weather Roundup
Issued by NWS

Home | Current Version | Previous Version | Graphics & Text | Print | Product List | Glossary On
Versions: 1 2 3 4 5 6 7 8 9 10 11 12 13 14 15 16 17 18 19 20 21 22 23 24 25 26 27 28 29 30 31 32 33 34 35 36 37 38 39 40 41 42 43 44 45 46 47 48 49 50
000
ASUS45 KABQ 052210
RWRNM
NEW MEXICO REGIONAL WEATHER ROUNDUP
NATIONAL WEATHER SERVICE ALBUQUERQUE NM
300 PM MST MON DEC 05 2016

NOTE: "FAIR" MEANS FEW OR NO CLOUDS BELOW 12,000 FEET AGL WITH NO
       SIGNIFICANT WEATHER OR OBSTRUCTIONS TO VISION.

      THIS PRODUCT IS RELEASED AS TWO VERSIONS.  ONE VERSION NEAR
      THE TOP OF THE HOUR CONTAINING PRELIMINARY DATA FROM ALBUQUERQUE
      AND OTHER STATIONS.  A FINAL VERSION WITH ADDITIONAL DATA IS
      ISSUED ABOUT 10 MINUTES AFTER THE HOUR.

NMZ501-503-504-510>518-052300-
NORTHWEST PLATEAU/NORTHCENTRAL MOUNTAINS

CITY           SKY/WX    TMP DP  RH WIND       PRES   REMARKS
FARMINGTON     FAIR      48  17  29 NW15      29.83R
LOS ALAMOS     FAIR      46  14  27 E5        29.80S
SANTA FE       FAIR      51  15  23 W10       29.76S
TAOS           FAIR      46  18  31 W17       29.78S
ANGEL FIRE     FAIR      40  16  38 W20G28    29.79R WCI  30

$$
NMZ402-403-502-505>509-052300-
WESTCENTRAL MOUNTAINS/SOUTHWEST MOUNTAINS

CITY           SKY/WX    TMP DP  RH WIND       PRES   REMARKS
GALLUP         FAIR      51  18  27 W18       29.87S
GRANTS         FAIR      51  16  25 W20G28    29.87R

$$
NMZ407-409-411-412-052300-
SOUTHERN DESERTS

CITY           SKY/WX    TMP DP  RH WIND       PRES   REMARKS
DEMING         FAIR      60  22  23 W17G29    29.87R
LAS CRUCES     FAIR      59  24  25 SW22G32   29.83F
HOLLOMAN AFB   FAIR      58  24  27 S5        29.85S
T OR C         FAIR      59  22  24 SE6       29.79F

$$
NMZ519>523-052300-
CENTRAL VALLEYS/CENTRAL HIGHLANDS

CITY           SKY/WX    TMP DP  RH WIND       PRES   REMARKS
ALBUQUERQUE    FAIR      53  17  24 SW7       29.79S
DOUBLE EAGLE   MOSUNNY   52  19  28 S9        29.80S
MORIARTY ARPT  FAIR      54  13  19 W23G29    29.78R
CLINES CORNERS FAIR      50  13  22 W41G53    29.74R
BELEN          FAIR      57  18  21 W14G20    29.79F
SOCORRO        FAIR      57  17  21 SE6       29.80

$$
NMZ524>526-539-540-052300-
SOUTHCENTRAL MOUNTAINS

CITY           SKY/WX    TMP DP  RH WIND       PRES   REMARKS
RUIDOSO        FAIR      52  14  22 NW13G23   29.82F

$$
NMZ527>531-052300-
NORTHEAST HIGHLANDS/NORTHEAST PLAINS

CITY           SKY/WX    TMP DP  RH WIND       PRES   REMARKS
LAS VEGAS      FAIR      57  10  15 NW26G36   29.67S
RATON          FAIR      58   0   9 W9G23     29.64R
CLAYTON        FAIR      66  18  15 NE15      29.57R

$$
NMZ532>537-052300-
EASTCENTRAL PLAINS

CITY           SKY/WX    TMP DP  RH WIND       PRES   REMARKS
TUCUMCARI      FAIR      66  17  15 W13       29.57R
CANNON AFB     FAIR      67  18  15 W24       29.61S
CLOVIS AIRPORT FAIR      64  21  19 W20G35    29.60S

$$
NMZ028-029-538-052300-
SOUTHEAST PLAINS

CITY           SKY/WX    TMP DP  RH WIND       PRES   REMARKS
ROSWELL        FAIR      63  37  38 SE10      29.68F
ARTESIA        FAIR      64  39  39 S8        29.69F
CARLSBAD       FAIR      65  30  27 SW16      29.69F
HOBBS          SUNNY     61  32  33 SW14      29.71S


$$



USA.gov is the U.S. government's official web portal to all federal, state and local government web resources and services.